When you browse on this site, cookies collect data to enhance your experience and personalize the content and advertising you see.
Visit our Privacy Policy to learn more. By continuing to use the site, you agree to this use of cookies and data.
  • In Österreich
  • Länderverzeichnis
  • Für 7 Tage
  • Wassertemperatur
  • Satellitenkarten
  • Wetterkarte
  • News
  • Widgets
  • user-avatar
    Anmelden

    Stündliche Wetter Trzebinia

    Heute, 16 Januar, Mittwoch

    Zeit Temperatur Niederschläge Wind Luftdruck Luftfeuchtigkeit
    00:00 -1°C° 0.6 mm 7 m/S 721 mmHg 91%
    01:00 -1°C° 0 mm 4 m/S 721 mmHg 95%
    02:00 0°C° 0.6 mm 5 m/S 721 mmHg 94%
    03:00 -1°C° 0.6 mm 6 m/S 722 mmHg 93%
    04:00 -1°C° 0.6 mm 7 m/S 722 mmHg 92%
    05:00 -1°C° 0.4 mm 6 m/S 722 mmHg 94%
    06:00 -1°C° 0.4 mm 6 m/S 723 mmHg 95%
    07:00 -1°C° 0.4 mm 6 m/S 723 mmHg 96%
    08:00 -1°C° 0.3 mm 6 m/S 723 mmHg 96%
    09:00 -1°C° 0.3 mm 6 m/S 724 mmHg 97%
    10:00 0°C° 0.3 mm 5 m/S 724 mmHg 98%
    11:00 0°C° 0.1 mm 5 m/S 724 mmHg 98%
    12:00 0°C° 0.1 mm 5 m/S 725 mmHg 98%
    13:00 0°C° 0.1 mm 4 m/S 725 mmHg 98%
    14:00 0°C° 0 mm 4 m/S 725 mmHg 97%
    15:00 0°C° 0 mm 4 m/S 725 mmHg 95%
    16:00 0°C° 0 mm 3 m/S 725 mmHg 94%
    17:00 0°C° 0 mm 3 m/S 725 mmHg 93%
    18:00 0°C° 0 mm 3 m/S 725 mmHg 91%
    19:00 -2°C° 0 mm 4 m/S 725 mmHg 90%
    20:00 -1°C° 0 mm 3 m/S 725 mmHg 90%
    21:00 -1°C° 0 mm 3 m/S 725 mmHg 90%
    22:00 -1°C° 0 mm 3 m/S 725 mmHg 89%
    23:00 -1°C° 0 mm 3 m/S 724 mmHg 88%

    Morgen, 17 Januar, Donnerstag

    Zeit Temperatur Niederschläge Wind Luftdruck Luftfeuchtigkeit
    00:00 -1°C° 0 mm 3 m/S 724 mmHg 87%
    01:00 -1°C° 0 mm 3 m/S 724 mmHg 86%
    02:00 -1°C° 0 mm 3 m/S 723 mmHg 82%
    03:00 -2°C° 0 mm 4 m/S 723 mmHg 78%
    04:00 -1°C° 0 mm 4 m/S 723 mmHg 74%
    05:00 -1°C° 0 mm 4 m/S 722 mmHg 73%
    06:00 -1°C° 0 mm 5 m/S 722 mmHg 72%
    07:00 -1°C° 0 mm 5 m/S 722 mmHg 70%
    08:00 0°C° 0 mm 5 m/S 722 mmHg 71%
    09:00 -1°C° 0 mm 6 m/S 722 mmHg 72%
    10:00 +1°C° 0 mm 6 m/S 722 mmHg 72%
    11:00 +1°C° 0 mm 6 m/S 722 mmHg 75%
    12:00 +1°C° 0 mm 6 m/S 722 mmHg 77%
    13:00 +1°C° 0 mm 6 m/S 722 mmHg 79%
    14:00 +1°C° 0 mm 5 m/S 722 mmHg 81%
    15:00 0°C° 0 mm 5 m/S 722 mmHg 82%
    16:00 0°C° 0 mm 5 m/S 722 mmHg 83%
    17:00 0°C° 0 mm 5 m/S 722 mmHg 83%
    18:00 0°C° 0 mm 5 m/S 722 mmHg 83%
    19:00 -1°C° 0 mm 6 m/S 722 mmHg 82%
    20:00 -1°C° 0 mm 6 m/S 722 mmHg 83%
    21:00 -1°C° 0 mm 6 m/S 722 mmHg 83%
    22:00 0°C° 0 mm 7 m/S 722 mmHg 84%
    23:00 -1°C° 0.1 mm 6 m/S 723 mmHg 84%

    übermorgen, 18 Januar, Freitag

    Zeit Temperatur Niederschläge Wind Luftdruck Luftfeuchtigkeit
    00:00 -1°C° 0.1 mm 6 m/S 723 mmHg 84%
    01:00 0°C° 0.1 mm 5 m/S 723 mmHg 84%
    02:00 -1°C° 0 mm 5 m/S 723 mmHg 80%
    03:00 -3°C° 0 mm 6 m/S 723 mmHg 77%
    04:00 -3°C° 0 mm 6 m/S 724 mmHg 73%
    05:00 -3°C° 0 mm 6 m/S 724 mmHg 73%
    06:00 -4°C° 0 mm 6 m/S 725 mmHg 74%
    07:00 -4°C° 0 mm 6 m/S 725 mmHg 75%
    08:00 -4°C° 0 mm 7 m/S 726 mmHg 74%
    09:00 -4°C° 0 mm 7 m/S 727 mmHg 73%
    10:00 -3°C° 0 mm 7 m/S 727 mmHg 72%
    11:00 -3°C° 0 mm 7 m/S 728 mmHg 71%
    12:00 -3°C° 0 mm 7 m/S 728 mmHg 71%
    13:00 -3°C° 0 mm 6 m/S 729 mmHg 70%
    14:00 -3°C° 0 mm 6 m/S 730 mmHg 73%
    15:00 -2°C° 0 mm 5 m/S 730 mmHg 75%
    16:00 -3°C° 0 mm 4 m/S 731 mmHg 78%
    17:00 -2°C° 0 mm 3 m/S 731 mmHg 81%
    18:00 -4°C° 0 mm 3 m/S 732 mmHg 84%
    19:00 -3°C° 0 mm 2 m/S 732 mmHg 87%
    20:00 -4°C° 0 mm 2 m/S 733 mmHg 88%
    21:00 -4°C° 0 mm 2 m/S 733 mmHg 89%
    22:00 -4°C° 0 mm 2 m/S 733 mmHg 89%
    23:00 -2°C° 0 mm 1 m/S 733 mmHg 89%

    19 Januar, Samstag

    Zeit Temperatur Niederschläge Wind Luftdruck Luftfeuchtigkeit
    00:00 -2°C° 0 mm 1 m/S 733 mmHg 89%
    01:00 -3°C° 0 mm 1 m/S 734 mmHg 89%
    02:00 -3°C° 0 mm 1 m/S 733 mmHg 88%
    03:00 -3°C° 0 mm 1 m/S 733 mmHg 87%
    04:00 -3°C° 0 mm 1 m/S 733 mmHg 87%
    05:00 -3°C° 0 mm 1 m/S 733 mmHg 85%
    06:00 -3°C° 0 mm 1 m/S 733 mmHg 84%
    07:00 -3°C° 0 mm 1 m/S 733 mmHg 83%
    08:00 -2°C° 0 mm 1 m/S 733 mmHg 79%
    09:00 -2°C° 0 mm 1 m/S 733 mmHg 75%
    10:00 -1°C° 0 mm 1 m/S 733 mmHg 71%
    11:00 -1°C° 0 mm 1 m/S 733 mmHg 69%
    12:00 0°C° 0 mm 1 m/S 733 mmHg 67%
    13:00 0°C° 0 mm 1 m/S 733 mmHg 65%
    14:00 0°C° 0 mm 1 m/S 732 mmHg 69%
    15:00 -1°C° 0 mm 1 m/S 732 mmHg 72%
    16:00 -1°C° 0 mm 1 m/S 732 mmHg 76%
    17:00 -2°C° 0 mm 1 m/S 732 mmHg 77%
    18:00 -2°C° 0 mm 1 m/S 732 mmHg 78%
    19:00 -2°C° 0 mm 1 m/S 732 mmHg 79%
    20:00 -2°C° 0 mm 1 m/S 732 mmHg 79%
    21:00 -3°C° 0 mm 1 m/S 732 mmHg 80%
    22:00 -3°C° 0 mm 1 m/S 732 mmHg 81%
    23:00 -3°C° 0 mm 1 m/S 731 mmHg 81%

    20 Januar, Sonntag

    Zeit Temperatur Niederschläge Wind Luftdruck Luftfeuchtigkeit
    00:00 -3°C° 0 mm 1 m/S 731 mmHg 82%
    01:00 -3°C° 0 mm 1 m/S 731 mmHg 83%
    02:00 -3°C° 0 mm 1 m/S 731 mmHg 84%
    03:00 -3°C° 0 mm 1 m/S 731 mmHg 84%
    04:00 -4°C° 0 mm 1 m/S 730 mmHg 85%
    05:00 -4°C° 0 mm 1 m/S 731 mmHg 85%
    06:00 -4°C° 0 mm 1 m/S 731 mmHg 86%
    07:00 -4°C° 0 mm 1 m/S 731 mmHg 86%
    08:00 -3°C° 0 mm 1 m/S 731 mmHg 83%
    09:00 -3°C° 0 mm 1 m/S 732 mmHg 79%
    10:00 -3°C° 0 mm 0 m/S 732 mmHg 76%
    11:00 -1°C° 0 mm 1 m/S 732 mmHg 72%
    12:00 -1°C° 0 mm 1 m/S 732 mmHg 68%
    13:00 0°C° 0 mm 1 m/S 732 mmHg 64%
    14:00 -1°C° 0 mm 1 m/S 732 mmHg 68%
    15:00 -1°C° 0 mm 1 m/S 732 mmHg 71%
    16:00 -2°C° 0 mm 1 m/S 732 mmHg 74%
    17:00 -2°C° 0 mm 1 m/S 732 mmHg 76%
    18:00 -2°C° 0 mm 1 m/S 733 mmHg 77%
    19:00 -3°C° 0 mm 1 m/S 733 mmHg 79%
    20:00 -3°C° 0 mm 1 m/S 734 mmHg 80%
    21:00 -5°C° 0 mm 2 m/S 734 mmHg 81%
    22:00 -5°C° 0 mm 2 m/S 735 mmHg 83%
    23:00 -5°C° 0 mm 2 m/S 735 mmHg 85%

    21 Januar, Montag

    Zeit Temperatur Niederschläge Wind Luftdruck Luftfeuchtigkeit
    00:00 -5°C° 0 mm 2 m/S 735 mmHg 86%
    01:00 -4°C° 0 mm 2 m/S 735 mmHg 88%
    02:00 -5°C° 0.1 mm 2 m/S 736 mmHg 90%
    03:00 -5°C° 0.1 mm 2 m/S 736 mmHg 91%
    04:00 -5°C° 0.1 mm 2 m/S 736 mmHg 93%
    05:00 -3°C° 0 mm 1 m/S 737 mmHg 93%
    06:00 -4°C° 0 mm 1 m/S 737 mmHg 93%
    07:00 -4°C° 0 mm 1 m/S 738 mmHg 92%
    08:00 -4°C° 0 mm 1 m/S 738 mmHg 89%
    09:00 -3°C° 0 mm 1 m/S 739 mmHg 85%
    10:00 -3°C° 0 mm 1 m/S 739 mmHg 82%
    11:00 -2°C° 0 mm 1 m/S 739 mmHg 78%
    12:00 -2°C° 0 mm 1 m/S 739 mmHg 74%
    13:00 -1°C° 0 mm 1 m/S 739 mmHg 70%
    14:00 -2°C° 0 mm 1 m/S 739 mmHg 72%
    15:00 -2°C° 0 mm 1 m/S 739 mmHg 74%
    16:00 -4°C° 0 mm 0 m/S 740 mmHg 76%
    17:00 -4°C° 0 mm 0 m/S 740 mmHg 78%
    18:00 -4°C° 0 mm 0 m/S 740 mmHg 79%
    19:00 -5°C° 0 mm 0 m/S 740 mmHg 81%
    20:00 -5°C° 0 mm 0 m/S 740 mmHg 82%
    21:00 -4°C° 0 mm 1 m/S 740 mmHg 83%
    22:00 -6°C° 0 mm 1 m/S 740 mmHg 83%
    23:00 -6°C° 0 mm 1 m/S 740 mmHg 83%
    Mehr zeigen